15min,AgWx,beryljct,423,29AUG2020:00:00:00,63.3,12.89,62.0,61.0,60.3,62.2,58.7,49,54,43,0.846,40.8,43.3,39.0,8.68,5.7,141,6.1,8.7,0.00028,0.00040,66.7,70.8,9,0,0,55.5,4.35,0.00,0.00
15min,AgWx,beryljct,423,29AUG2020:00:15:00,63.2,12.87,64.7,65.6,65.2,66.9,61.1,36,45,30,0.687,37.1,40.1,34.5,6.27,6.7,161,13,8.7,0.00053,0.00074,66.5,70.7,9,0,0,60.9,4.36,0.00,0.00
15min,AgWx,beryljct,423,29AUG2020:00:30:00,63.4,12.88,64.5,64.1,63.8,65.6,63.1,34,35,32,0.682,34.7,35.4,34.0,5.327,5.7,175,4.6,6.9,0.00044,0.00063,66.2,70.6,9,0,0,59.5,4.35,0.00,0.00
15min,AgWx,beryljct,423,29AUG2020:00:45:00,63.4,12.87,65.4,65.6,65.1,65.8,64.2,32,33,31,0.685,34.8,35.3,34.3,5.502,5.2,179,3.8,6.1,0.00042,0.00061,66.0,70.5,9,0,0,60.3,4.36,0.00,0.00
15min,AgWx,beryljct,423,29AUG2020:01:00:00,63.8,12.85,63.7,66.3,67.7,69.5,65.5,30,35,27,0.770,34.9,37.8,34.0,3.332,4.8,179,4.3,6.3,0.00042,0.00063,65.7,70.4,9,0,0,62.9,4.35,0.00,0.00
15min,AgWx,beryljct,423,29AUG2020:01:15:00,64.1,12.86,64.5,62.4,66.5,69.1,61.7,33,43,28,0.702,36.4,40.7,34.3,3.354,3.7,179,6.9,5.2,0.00024,0.00039,65.5,70.3,9,0,0,62.5,4.35,0.00,0.00
15min,AgWx,beryljct,423,29AUG2020:01:30:00,64.0,12.84,62.4,64.4,65.8,68.2,62.7,31,43,27,0.703,34.4,40.3,32.6,4.077,2.8,202,11,4.1,0.00012,0.00023,65.2,70.2,9,0,0,61.3,4.35,0.00,0.00
15min,AgWx,beryljct,423,29AUG2020:01:45:00,63.3,12.82,56.1,56.3,58.2,64.3,55.9,56,65,33,0.908,42.2,45.2,34.7,2.368,2.1,170,8.6,4.1,-0.00008,-0.00007,65.0,70.1,9,0,0,55.7,4.35,0.00,0.00
15min,AgWx,beryljct,423,29AUG2020:02:00:00,61.7,12.84,55.7,54.5,55.3,56.3,54.1,55,65,47,0.716,39.4,44.4,35.5,6.16,3.2,170,16,6.2,0.00002,0.00006,64.8,70.0,9,0,0,50.7,4.35,0.00,0.00
15min,AgWx,beryljct,423,29AUG2020:02:15:00,60.3,12.83,55.8,55.2,55.7,56.6,54.6,46,51,42,0.651,35.4,37.5,33.4,4.428,4.8,179,20,6.3,0.00020,0.00030,64.6,69.9,9,0,0,51.1,4.36,0.00,0.00
15min,AgWx,beryljct,423,29AUG2020:02:30:00,59.2,12.82,52.5,52.8,54.1,55.5,52.8,56,64,44,0.864,38.6,40.9,33.7,2.083,3.8,146,7.2,5.4,0.00007,0.00013,64.4,69.8,9,0,0,50.0,4.35,0.00,0.00
15min,AgWx,beryljct,423,29AUG2020:02:45:00,58.1,12.82,53.8,53.5,52.8,53.5,52.2,63,66,60,0.844,40.4,41.2,39.9,3.595,2.9,120,13,4.6,-0.00004,-0.00003,64.2,69.7,9,0,0,48.0,4.36,0.00,0.00
15min,AgWx,beryljct,423,29AUG2020:03:00:00,57.3,12.81,52.9,52.9,53.2,53.9,52.7,63,68,58,0.906,41.0,42.4,39.5,5.217,3.6,127,7.1,5.2,0.00001,0.00004,64.0,69.6,9,0,0,48.4,4.36,0.00,0.00
15min,AgWx,beryljct,423,29AUG2020:03:15:00,56.5,12.8,51.5,51.5,52.1,52.9,51.4,70,72,66,0.930,42.6,43.2,42.0,3.332,4.2,136,3.4,5.3,0.00000,0.00003,63.8,69.5,9,0,0,47.1,4.36,0.00,0.00
15min,AgWx,beryljct,423,29AUG2020:03:30:00,55.7,12.8,51.5,51.3,51.6,52.1,51.3,70,72,67,0.896,42.0,42.7,41.3,3.179,2.5,139,5.2,3.4,-0.00009,-0.00010,63.6,69.4,10,0,0,45.9,4.36,0.00,0.00
15min,AgWx,beryljct,423,29AUG2020:03:45:00,54.9,12.78,50.0,50.7,50.9,51.4,50.7,70,72,68,0.904,41.6,42.0,41.2,3.771,3.1,135,22,4.1,-0.00006,-0.00005,63.5,69.3,9,0,0,45.5,4.36,0.00,0.00
15min,AgWx,beryljct,423,29AUG2020:04:00:00,54.3,12.78,50.2,51.0,51.4,52.5,49.8,66,74,57,0.849,40.4,42.1,37.8,2.083,1.9,278,48,6.2,-0.00013,-0.00016,63.2,69.2,9,0,0,45.4,4.36,0.00,0.00
15min,AgWx,beryljct,423,29AUG2020:04:15:00,54.1,12.78,50.1,50.6,50.5,51.4,49.9,63,71,56,0.767,38.5,41.2,36.4,1.688,3.8,330,7.8,5.9,0.00001,0.00005,63.1,69.1,9,0,0,46.3,4.36,0.00,0.00
15min,AgWx,beryljct,423,29AUG2020:04:30:00,53.8,12.77,52.5,52.6,51.6,53.2,49.2,59,72,51,0.801,37.7,40.5,35.6,0,1.7,315,1.5,3.4,-0.00013,-0.00015,62.9,68.9,9,0,0,46.5,4.36,0.00,0.00
15min,AgWx,beryljct,423,29AUG2020:04:45:00,53.9,12.77,53.3,53.0,53.2,53.9,52.5,57,66,51,0.818,38.3,41.9,36.1,0,0.3,109,30,2.1,-0.00031,-0.00047,62.6,68.9,9,0,0,48.0,4.36,0.00,0.00
15min,AgWx,beryljct,423,29AUG2020:05:00:00,54.1,12.76,53.9,53.5,53.8,54.3,53.1,58,65,50,0.802,39.1,42.1,36.0,0.811,0.6,84,23,2.5,-0.00027,-0.00040,62.5,68.7,9,0,0,48.3,4.36,0.00,0.00
15min,AgWx,beryljct,423,29AUG2020:05:15:00,54.3,12.74,52.9,52.6,53.2,54.3,52.3,62,73,51,0.907,40.4,43.8,36.3,0.504,0.8,56,3.8,2.3,-0.00024,-0.00034,62.3,68.6,9,0,0,49.0,4.36,0.00,0.00
15min,AgWx,beryljct,423,29AUG2020:05:30:00,54.7,12.75,52.1,52.3,53.0,53.6,52.3,63,69,60,0.827,40.9,43.5,39.3,1.008,2.1,159,29,5.2,0.00021,0.00036,62.2,68.5,9,0,0,49.8,4.36,0.00,0.00
15min,AgWx,beryljct,423,29AUG2020:05:45:00,55.0,12.74,51.8,51.8,52.6,53.4,51.8,66,76,57,0.995,41.6,44.5,38.6,0.614,2.0,320,37,4.3,0.00019,0.00032,62.0,68.4,9,0,0,49.7,4.36,0.00,0.00
15min,AgWx,beryljct,423,29AUG2020:06:00:00,55.3,12.74,54.9,55.3,53.9,56.8,51.7,61,76,42,0.887,40.5,44.5,33.9,8.81,3.5,343,36,13.2,0.00034,0.00059,61.9,68.3,9,1,0,50.9,4.36,0.00,0.00
15min,AgWx,beryljct,423,29AUG2020:06:15:00,56.0,12.73,54.6,54.9,55.5,57.3,54.8,59,67,45,0.959,41.3,44.3,36.0,3.573,3.4,120,41,12.7,0.00041,0.00068,61.8,68.2,9,7,0,53.2,4.36,0.01,0.00
15min,AgWx,beryljct,423,29AUG2020:06:30:00,56.4,12.74,54.3,55.4,55.9,56.9,54.5,61,71,53,1.060,42.6,46.1,39.9,4.779,2.4,183,31,5.0,0.00035,0.00054,61.7,68.0,9,15,0,54.0,4.36,0.00,0.00
15min,AgWx,beryljct,423,29AUG2020:06:45:00,56.4,12.76,55.3,54.9,55.2,56.1,54.3,63,74,54,0.902,42.9,46.4,39.8,2.916,2.3,314,11,4.4,0.00033,0.00050,61.6,68.0,9,16,0,52.3,4.36,0.00,0.00
15min,AgWx,beryljct,423,29AUG2020:07:00:00,56.2,12.78,55.3,55.0,55.9,57.3,54.8,57,68,50,0.981,41.0,44.8,38.3,1.71,1.9,304,74,3.7,0.00047,0.00066,61.5,67.8,9,42,0,53.7,4.36,0.00,0.00
15min,AgWx,beryljct,423,29AUG2020:07:15:00,56.1,12.78,54.9,54.0,54.8,55.4,54.0,71,76,64,1.051,45.4,46.9,43.1,3.354,2.0,85,48,4.1,0.00038,0.00052,61.5,67.7,9,37,0,54.3,4.36,0.00,0.00
15min,AgWx,beryljct,423,29AUG2020:07:30:00,55.9,12.83,54.7,54.3,53.6,54.3,53.1,68,75,60,0.970,43.5,45.8,40.2,1.556,2.8,318,14,5.5,0.00055,0.00074,61.4,67.6,9,57,0,53.3,4.36,0.00,0.00
15min,AgWx,beryljct,423,29AUG2020:07:45:00,56.6,12.87,60.8,59.7,57.1,59.7,54.4,58,68,49,0.853,42.5,44.4,40.4,1.381,1.9,310,18,2.9,0.00086,0.00106,61.3,67.5,9,104,0,60.2,4.36,0.00,0.00
15min,AgWx,beryljct,423,29AUG2020:08:00:00,58.3,13.01,60.9,60.5,60.2,61.4,59.1,48,60,38,0.845,40.4,45.7,35.4,2.214,2.9,27,19,4.6,0.00129,0.00166,61.3,67.4,9,147,0,65.2,4.35,0.00,0.00
15min,AgWx,beryljct,423,29AUG2020:08:15:00,61.0,13.37,64.6,64.5,62.5,64.5,60.6,48,58,39,0.876,42.7,46.7,36.8,2.521,3.3,337,19,4.9,0.00219,0.00266,61.2,67.3,9,318,0,78.8,4.35,0.00,0.00
15min,AgWx,beryljct,423,29AUG2020:08:30:00,64.3,13.55,66.6,66.0,65.0,66.0,64.1,39,48,33,0.802,39.2,44.4,35.6,1.096,3.7,26,11,5.9,0.00263,0.00326,61.3,67.2,9,360,0,85.7,4.35,0.00,0.00
15min,AgWx,beryljct,423,29AUG2020:08:45:00,67.7,14.12,68.2,68.2,66.9,68.2,65.9,35,40,31,0.742,38.4,41.1,35.2,1.622,1.8,70,29,3.2,0.00312,0.00358,61.4,.,.,479,0,100.3,4.34,0.00,0.00
15min,AgWx,beryljct,423,29AUG2020:09:00:00,71.1,14.05,71.1,70.7,69.6,70.8,68.2,35,41,31,0.983,40.6,45.8,36.6,2.916,1.3,89,25,3.2,0.00310,0.00350,61.6,66.9,9,462,0,107.0,4.33,0.00,0.00
15min,AgWx,beryljct,423,29AUG2020:09:15:00,74.5,13.48,77.8,77.9,74.5,77.9,70.7,36,43,30,0.998,45.6,49.6,41.3,17.27,6.6,122,43,20.5,0.00425,0.00541,61.8,.,.,515,0,102.9,4.33,0.00,0.00
15min,AgWx,beryljct,423,29AUG2020:09:30:00,76.1,14.03,76.8,77.6,77.5,77.8,77.0,30,33,29,0.960,44.0,45.8,42.8,12.82,13.9,186,14,19.1,0.00412,0.00624,62.2,.,.,252,0,85.8,4.33,0.00,0.00
15min,AgWx,beryljct,423,29AUG2020:09:45:00,77.4,13.98,76.9,77.3,77.6,78.3,77.0,31,34,29,1.098,44.7,47.2,42.6,7.936,10.3,168,15,14.8,0.00471,0.00648,62.5,.,.,466,0,94.0,4.33,0.00,0.00
15min,AgWx,beryljct,423,29AUG2020:10:00:00,79.5,13.94,79.6,79.8,79.4,80.7,77.2,30,35,26,0.996,45.2,48.0,42.5,9.34,11.1,172,13,16.0,0.00634,0.00835,62.8,.,.,730,0,104.0,4.32,0.00,0.00
15min,AgWx,beryljct,423,29AUG2020:10:15:00,80.9,13.9,80.5,79.5,79.7,80.6,78.6,29,33,26,1.091,45.0,47.8,42.5,8.55,10.3,175,14,18.1,0.00478,0.00661,63.1,.,.,436,0,95.3,4.32,0.00,0.00
15min,AgWx,beryljct,423,29AUG2020:10:30:00,82.1,13.96,82.2,82.1,81.6,82.7,79.6,27,32,25,1.036,44.7,47.0,42.4,16.31,13.7,189,13,19.5,0.00708,0.00954,63.5,.,.,769,0,103.2,4.32,0.00,0.00
15min,AgWx,beryljct,423,29AUG2020:10:45:00,83.5,13.88,83.7,82.2,82.2,82.8,81.7,27,29,25,1.029,45.0,47.3,43.2,14.91,14.1,188,13,22.3,0.00733,0.00988,63.8,.,.,789,0,103.4,4.32,0.00,0.00
15min,AgWx,beryljct,423,29AUG2020:11:00:00,84.5,13.51,81.8,82.1,82.4,83.3,81.9,27,30,24,0.985,45.1,47.8,41.7,11.75,13.5,193,14,20.7,0.00746,0.00997,64.2,.,.,816,0,103.8,4.31,0.00,0.00
15min,AgWx,beryljct,423,29AUG2020:11:15:00,84.2,13.48,81.7,81.5,81.1,82.0,80.5,28,31,25,1.050,44.8,47.7,42.4,10.65,9.9,186,15,15.7,0.00449,0.00632,64.6,.,.,363,0,92.5,4.32,0.00,0.00
15min,AgWx,beryljct,423,29AUG2020:11:30:00,83.8,13.5,81.3,81.8,81.8,82.7,80.8,27,31,25,0.992,44.9,48.1,42.6,13.39,10.5,189,17,17.1,0.00522,0.00720,65.0,.,.,481,0,94.9,4.32,0.00,0.00
15min,AgWx,beryljct,423,29AUG2020:11:45:00,84.4,13.41,83.7,83.4,83.0,83.9,81.6,27,30,23,1.182,45.2,49.0,41.7,8.86,10.0,190,22,18.5,0.00736,0.00944,65.4,.,.,859,0,104.0,4.32,0.00,0.00
15min,AgWx,beryljct,423,29AUG2020:12:00:00,85.9,13.41,84.9,83.9,84.1,84.8,83.5,25,31,23,0.949,44.9,49.9,42.6,4.691,9.3,185,18,20.6,0.00753,0.00958,65.7,.,.,884,0,107.3,4.32,0.00,0.00
15min,AgWx,beryljct,423,29AUG2020:12:15:00,86.5,13.44,82.6,82.8,83.0,85.1,81.3,27,33,23,1.071,46.0,50.8,41.4,8.53,8.4,189,25,15.9,0.00513,0.00683,66.1,.,.,495,0,98.7,4.32,0.00,0.00
15min,AgWx,beryljct,423,29AUG2020:12:30:00,86.3,13.41,85.1,85.5,83.7,85.6,82.2,27,32,23,1.019,46.3,49.4,43.2,13.11,11.4,176,15,18.8,0.00704,0.00927,66.6,.,.,779,0,99.9,4.32,0.00,0.00
15min,AgWx,beryljct,423,29AUG2020:12:45:00,87.4,13.4,85.3,85.2,84.7,85.7,83.5,26,31,23,0.993,46.4,50.3,42.8,8.57,12.9,173,14,22.5,0.00867,0.01125,67.0,.,.,998,0,105.3,4.32,0.00,0.00
15min,AgWx,beryljct,423,29AUG2020:13:00:00,88.3,13.4,86.2,85.6,85.3,86.2,84.5,25,28,23,1.077,45.8,49.2,42.6,11.68,13.8,180,15,21.4,0.00848,0.01120,67.5,.,.,941,0,103.4,4.32,0.00,0.00
15min,AgWx,beryljct,423,29AUG2020:13:15:00,89.0,13.37,86.6,85.6,85.5,86.3,84.7,25,28,22,1.128,45.5,48.9,42.3,7.168,13.2,176,14,19.8,0.00834,0.01100,68.0,.,.,924,0,102.3,4.32,0.00,0.00
15min,AgWx,beryljct,423,29AUG2020:13:30:00,89.6,13.34,84.2,84.6,85.4,86.2,84.4,25,30,23,1.227,45.4,50.0,43.4,11.47,13.9,174,15,20.7,0.00833,0.01107,68.5,.,.,911,0,100.9,4.32,0.00,0.00
15min,AgWx,beryljct,423,29AUG2020:13:45:00,89.9,13.34,84.3,85.1,85.3,86.1,84.6,26,28,23,1.093,46.3,49.1,44.0,9.19,12.2,196,20,18.3,0.00818,0.01068,69.1,.,.,922,0,101.2,4.32,0.00,0.00
15min,AgWx,beryljct,423,29AUG2020:14:00:00,90.3,13.41,85.9,85.8,85.3,86.1,84.5,25,29,22,0.994,45.7,49.0,41.9,17.27,13.1,188,18,21.1,0.00822,0.01083,69.6,.,.,912,0,101.0,4.32,0.00,0.00
15min,AgWx,beryljct,423,29AUG2020:14:15:00,90.9,13.37,83.7,84.2,86.0,86.7,84.2,25,30,22,1.178,45.7,50.5,42.3,13.31,13.0,188,27,21.6,0.00812,0.01076,70.1,.,.,885,0,100.6,4.33,0.00,0.00
15min,AgWx,beryljct,423,29AUG2020:14:30:00,91.2,13.31,86.3,86.1,85.7,87.2,84.1,25,32,21,1.045,46.0,51.2,41.8,15.59,10.2,193,30,18.5,0.00764,0.00986,70.7,.,.,871,0,101.2,4.32,0.00,0.00
15min,AgWx,beryljct,423,29AUG2020:14:45:00,91.6,13.29,86.0,86.7,86.3,87.9,84.9,25,29,23,0.990,46.4,49.2,43.9,20.06,12.7,199,22,20.2,0.00791,0.01049,71.2,.,.,858,0,99.7,4.32,0.00,0.00
15min,AgWx,beryljct,423,29AUG2020:15:00:00,91.4,13.32,84.9,85.7,85.7,86.9,84.8,24,28,22,1.042,45.1,48.9,42.5,17.78,12.9,182,17,20.3,0.00606,0.00858,71.7,.,.,567,0,96.4,4.33,0.00,0.00
15min,AgWx,beryljct,423,29AUG2020:15:15:00,89.8,13.35,84.8,85.1,84.1,85.6,82.7,25,28,23,1.087,44.7,46.8,42.1,7.541,12.6,205,19,19.9,0.00472,0.00706,72.2,.,.,326,0,91.7,4.32,0.00,0.00
15min,AgWx,beryljct,423,29AUG2020:15:30:00,89.7,13.33,86.1,86.9,86.2,87.9,84.4,24,28,21,0.919,45.1,48.2,42.2,17.3,12.5,192,19,21.8,0.00687,0.00937,72.5,.,.,704,0,96.4,4.32,0.00,0.00
15min,AgWx,beryljct,423,29AUG2020:15:45:00,88.4,13.41,78.5,78.4,80.7,86.8,77.4,30,38,22,1.072,46.3,49.9,41.5,7.607,12.0,1.8,73,18.2,0.00355,0.00555,72.7,.,.,171,0,86.0,4.33,0.00,0.00
15min,AgWx,beryljct,423,29AUG2020:16:00:00,85.4,13.29,76.5,77.0,77.0,78.4,76.5,37,39,32,1.180,48.5,50.0,46.0,4.691,5.4,346,20,11.5,0.00189,0.00279,72.9,.,.,119,0,80.9,4.33,0.00,0.00
15min,AgWx,beryljct,423,29AUG2020:16:15:00,83.3,13.3,76.9,77.1,77.1,77.7,76.6,36,40,34,1.159,48.4,51.0,46.9,9.65,9.0,333,18,15.8,0.00247,0.00382,73.0,.,.,133,0,80.9,4.33,0.01,0.00
15min,AgWx,beryljct,423,29AUG2020:16:30:00,81.8,13.24,76.4,77.0,77.2,77.6,76.7,36,38,34,1.133,48.3,49.5,47.1,11.27,9.5,358,12,14.4,0.00249,0.00390,73.0,.,.,136,0,80.9,4.33,0.00,0.00
15min,AgWx,beryljct,423,29AUG2020:16:45:00,80.6,13.18,74.6,75.1,76.2,77.0,74.5,38,44,35,1.226,48.5,51.5,47.0,6.642,9.7,12,17,13.8,0.00232,0.00371,72.9,.,.,114,0,78.6,4.33,0.00,0.00
15min,AgWx,beryljct,423,29AUG2020:17:00:00,79.4,13.06,75.8,75.3,75.1,76.1,74.6,42,45,38,1.252,50.3,51.9,48.4,3.924,6.6,17,15,11.7,0.00158,0.00252,72.7,.,.,92,13,78.0,4.33,0.00,0.00
15min,AgWx,beryljct,423,29AUG2020:17:15:00,78.2,13.18,75.7,75.5,75.4,76.2,74.4,40,43,37,1.213,49.7,51.0,48.0,5.765,5.9,6.0,14,8.7,0.00132,0.00218,72.6,.,.,106,7,80.5,4.33,0.00,0.00
15min,AgWx,beryljct,423,29AUG2020:17:30:00,77.6,13.11,75.2,75.3,74.6,75.7,73.9,44,48,40,1.251,51.5,53.3,49.4,3.858,5.5,328,8.8,7.4,0.00092,0.00165,72.3,.,.,74,0,76.6,4.33,0.00,0.00
15min,AgWx,beryljct,423,29AUG2020:17:45:00,77.1,13.07,75.1,75.1,74.7,75.4,73.6,43,49,38,1.230,51.0,53.6,48.1,7.015,5.8,326,15,9.9,0.00077,0.00153,72.1,.,.,68,24,76.8,4.34,0.00,0.00
15min,AgWx,beryljct,423,29AUG2020:18:00:00,75.8,13.08,74.2,73.9,74.6,75.8,73.7,41,43,35,1.163,49.1,51.4,46.4,1.535,4.9,339,10,7.9,0.00052,0.00122,72.0,69.2,9,45,2,75.9,4.34,0.00,0.00
15min,AgWx,beryljct,423,29AUG2020:18:15:00,75.5,13.06,74.5,73.1,72.9,74.0,72.1,50,58,40,1.282,52.9,57.1,48.2,0,0.4,337,10,1.8,0.00030,0.00047,71.7,69.4,9,63,0,75.2,4.34,0.00,0.00
15min,AgWx,beryljct,423,29AUG2020:18:30:00,75.5,13.06,74.3,73.7,73.4,74.9,72.1,49,64,37,1.235,52.6,59.4,46.8,3.354,2.0,199,42,4.3,0.00058,0.00088,71.6,69.5,9,88,0,75.9,4.34,0.00,0.00
15min,AgWx,beryljct,423,29AUG2020:18:45:00,75.5,13.05,70.2,70.7,72.8,74.6,70.7,50,60,40,1.529,53.0,57.6,48.3,7.278,4.5,140,8.3,7.5,0.00076,0.00107,71.4,69.6,9,81,0,75.1,4.34,0.00,0.00
15min,AgWx,beryljct,423,29AUG2020:19:00:00,74.8,13.01,69.3,69.6,70.9,72.0,69.5,54,60,49,1.383,53.4,56.1,51.7,6.642,7.3,139,7.3,8.6,0.00074,0.00098,71.2,69.7,9,39,0,71.1,4.34,0.00,0.00
15min,AgWx,beryljct,423,29AUG2020:19:15:00,73.4,12.98,69.8,69.9,69.4,69.9,68.7,54,56,50,1.251,51.8,53.4,50.3,8.18,7.4,154,13,10.3,0.00065,0.00086,71.1,69.7,9,6,0,67.7,4.35,0.01,0.00
15min,AgWx,beryljct,423,29AUG2020:19:30:00,72.3,12.97,70.1,70.0,69.7,70.3,69.3,49,51,45,1.166,49.6,50.6,48.2,6.511,7.1,172,12,9.5,0.00069,0.00092,70.9,69.8,9,1,0,67.2,4.35,0.00,0.00
15min,AgWx,beryljct,423,29AUG2020:19:45:00,71.8,12.96,70.6,71.7,71.5,73.1,70.0,42,46,37,1.136,47.2,48.7,45.4,4.691,6.1,176,13,10.3,0.00074,0.00101,70.7,69.8,9,0,0,69.0,4.35,0.00,0.00
15min,AgWx,beryljct,423,29AUG2020:20:00:00,71.7,12.96,71.7,70.8,71.6,72.6,70.7,41,44,38,1.093,46.7,48.1,45.4,3.771,4.4,183,13,6.0,0.00060,0.00087,70.4,69.9,9,0,0,68.9,4.34,0.00,0.00
15min,AgWx,beryljct,423,29AUG2020:20:15:00,71.1,12.94,69.3,69.6,69.7,71.3,68.8,45,48,41,1.106,47.5,48.7,46.4,5.02,4.8,191,6.0,6.5,0.00058,0.00082,70.2,69.9,9,0,0,66.5,4.35,0.00,0.00
15min,AgWx,beryljct,423,29AUG2020:20:30:00,70.2,12.95,69.3,70.2,69.4,70.3,68.7,45,47,42,1.083,46.9,47.7,46.0,1.929,4.0,180,6.9,5.7,0.00051,0.00074,69.9,69.9,9,0,0,65.2,4.34,0.00,0.00
15min,AgWx,beryljct,423,29AUG2020:20:45:00,69.4,12.93,70.2,70.4,70.5,70.9,70.1,41,43,40,1.039,45.7,46.5,45.1,2.872,2.8,169,6.2,4.0,0.00041,0.00063,69.7,69.9,9,0,0,65.0,4.34,0.00,0.00
15min,AgWx,beryljct,423,29AUG2020:21:00:00,68.8,12.93,67.9,67.2,68.8,71.0,65.6,45,56,39,1.059,46.4,49.8,44.8,2.806,2.9,160,9.3,3.3,0.00039,0.00059,69.4,69.9,9,0,0,64.1,4.34,0.00,0.00
15min,AgWx,beryljct,423,29AUG2020:21:15:00,67.8,12.93,67.4,67.2,67.3,68.2,66.4,45,47,43,0.985,45.4,46.4,44.2,2.083,3.0,180,5.6,4.0,0.00039,0.00058,69.1,69.9,9,0,0,62.1,4.34,0.00,0.00
15min,AgWx,beryljct,423,29AUG2020:21:30:00,67.0,12.91,66.6,66.9,67.4,67.7,66.9,43,45,42,0.965,44.0,45.2,43.6,2.894,3.0,182,4.5,4.0,0.00041,0.00060,68.9,69.9,9,0,0,61.8,4.34,0.00,0.00
15min,AgWx,beryljct,423,29AUG2020:21:45:00,66.4,12.91,67.6,66.4,66.0,67.0,64.9,47,51,43,1.017,45.2,46.8,43.7,3.661,3.4,197,10,5.4,0.00041,0.00059,68.6,69.9,9,0,0,61.5,4.34,0.00,0.00
15min,AgWx,beryljct,423,29AUG2020:22:00:00,65.9,12.91,65.0,65.2,67.7,68.9,65.2,43,51,40,1.079,44.4,47.2,43.2,2.324,2.4,195,28,3.7,0.00034,0.00052,68.4,69.9,9,0,0,62.0,4.34,0.00,0.00
15min,AgWx,beryljct,423,29AUG2020:22:15:00,65.4,12.91,65.4,65.7,65.0,66.3,63.3,49,55,44,1.073,45.4,47.1,43.1,6.029,3.4,338,27,8.9,0.00038,0.00056,68.1,69.9,9,0,0,61.1,4.35,0.00,0.00
15min,AgWx,beryljct,423,29AUG2020:22:30:00,65.1,12.91,61.3,61.1,63.3,65.7,60.7,56,63,50,1.122,47.3,48.0,46.5,1.754,3.6,343,28,7.9,0.00034,0.00049,67.9,69.9,9,0,0,59.7,4.35,0.00,0.00
15min,AgWx,beryljct,423,29AUG2020:22:45:00,64.2,12.9,59.9,59.1,60.6,61.9,58.8,62,66,59,1.103,47.4,47.6,47.1,3.157,3.1,343,10,3.9,0.00024,0.00036,67.6,69.8,9,0,0,56.4,4.35,0.00,0.00
15min,AgWx,beryljct,423,29AUG2020:23:00:00,63.0,12.9,61.3,60.6,59.2,60.6,57.8,62,68,57,1.027,46.2,47.3,45.0,4.647,3.9,337,5.6,5.0,0.00028,0.00039,67.4,69.8,10,0,0,55.1,4.35,0.00,0.00
15min,AgWx,beryljct,423,29AUG2020:23:15:00,62.2,12.88,59.4,59.9,60.5,61.2,59.5,58,61,56,1.070,45.8,46.4,45.2,2.499,3.3,356,17,5.2,0.00028,0.00041,67.1,69.7,10,0,0,56.1,4.35,0.00,0.00
15min,AgWx,beryljct,423,29AUG2020:23:30:00,61.5,12.88,60.2,59.9,60.1,61.7,58.5,60,65,56,1.034,46.3,47.0,45.5,4.713,3.4,352,15,4.8,0.00027,0.00039,66.9,69.7,10,0,0,55.8,4.35,0.00,0.00
15min,AgWx,beryljct,423,29AUG2020:23:45:00,61.1,12.87,59.6,58.6,59.6,60.9,57.8,60,69,56,1.100,45.7,47.6,45.2,1.052,3.5,328,34,5.6,0.00028,0.00040,66.6,69.6,10,0,0,55.4,4.35,0.00,0.00
15min,AgWx,bigpiney,439,29AUG2020:00:00:00,53.9,12.67,52.2,52.3,52.1,52.5,51.4,54,57,53,0.708,36.0,36.7,35.7,5.371,5.1,259,5.5,5.6,0.00014,0.00021,55.2,53.3,46,0,0,0.0,8.21,0.00,0.00
15min,AgWx,bigpiney,439,29AUG2020:00:15:00,53.7,12.67,53.0,51.7,52.3,53.5,49.8,53,59,51,0.716,35.7,36.2,35.5,6.796,5.0,258,23,7.1,0.00014,0.00021,55.1,53.4,46,0,0,0.0,8.21,0.00,0.00
15min,AgWx,bigpiney,439,29AUG2020:00:30:00,53.4,12.65,49.2,49.0,50.6,52.2,48.9,56,60,53,0.709,35.6,35.9,35.3,6.16,6.3,230,18,8.8,0.00018,0.00025,55.1,53.3,46,0,0,0.0,8.21,0.00,0.00
15min,AgWx,bigpiney,439,29AUG2020:00:45:00,53.0,12.65,53.3,52.3,50.2,52.3,49.0,56,60,50,0.665,35.2,35.7,34.1,1.118,2.9,244,30,6.4,-0.00002,0.00001,55.1,53.4,46,0,0,0.0,8.21,0.00,0.00
15min,AgWx,bigpiney,439,29AUG2020:01:00:00,52.6,12.65,49.7,50.2,52.3,53.1,50.2,49,52,48,0.643,33.7,34.1,33.1,3.223,1.6,322,37,3.3,-0.00013,-0.00016,55.0,53.3,46,0,0,0.0,8.21,0.00,0.00
15min,AgWx,bigpiney,439,29AUG2020:01:15:00,52.2,12.64,52.6,51.9,50.2,51.9,49.3,52,54,48,0.635,33.2,33.5,33.0,2.872,3.5,274,42,4.6,0.00004,0.00009,54.9,53.3,46,0,0,0.0,8.21,0.00,0.00
15min,AgWx,bigpiney,439,29AUG2020:01:30:00,51.6,12.63,41.0,41.4,47.4,52.0,41.4,59,76,48,0.673,33.4,34.4,32.4,6.16,4.6,195,14,6.7,0.00008,0.00013,54.9,53.4,46,0,0,0.0,8.21,0.00,0.00
15min,AgWx,bigpiney,439,29AUG2020:01:45:00,50.4,12.62,42.0,41.7,40.8,41.7,40.0,77,79,75,0.671,34.3,34.6,33.8,4.231,4.7,209,7.2,6.4,-0.00003,-0.00002,54.8,53.3,46,0,0,0.0,8.21,0.00,0.00
15min,AgWx,bigpiney,439,29AUG2020:02:00:00,49.0,12.61,42.9,43.5,42.2,45.3,40.8,72,75,64,0.638,33.6,34.4,32.8,3.179,3.0,221,28,4.7,-0.00008,-0.00008,54.8,53.3,46,0,0,0.0,8.21,0.00,0.00
15min,AgWx,bigpiney,439,29AUG2020:02:15:00,47.9,12.59,41.7,42.7,43.7,45.7,42.0,67,71,61,0.652,33.3,33.8,32.6,3.135,2.2,177,28,5.3,-0.00011,-0.00013,54.7,53.4,46,0,0,0.0,8.21,0.00,0.00
15min,AgWx,bigpiney,439,29AUG2020:02:30:00,47.0,12.59,40.9,41.3,42.3,43.5,41.2,72,74,69,0.651,33.8,34.2,33.2,3.025,3.4,162,9.2,4.8,-0.00006,-0.00005,54.7,53.3,46,0,0,0.0,8.21,0.00,0.00
15min,AgWx,bigpiney,439,29AUG2020:02:45:00,46.4,12.58,43.4,42.8,42.1,43.3,40.8,73,76,70,0.659,33.9,34.4,33.4,3.464,2.7,162,16,4.6,-0.00009,-0.00011,54.6,53.3,46,0,0,0.0,8.21,0.00,0.00
15min,AgWx,bigpiney,439,29AUG2020:03:00:00,46.0,12.57,43.5,43.8,43.2,43.9,42.4,70,72,68,0.663,34.1,34.4,33.8,3.157,3.5,158,13,4.6,-0.00004,-0.00004,54.6,53.3,46,0,0,0.0,8.21,0.00,0.00
15min,AgWx,bigpiney,439,29AUG2020:03:15:00,45.6,12.56,40.2,39.9,41.6,43.8,39.9,73,77,68,0.642,33.5,34.1,32.8,2.521,3.2,197,20,4.7,-0.00007,-0.00007,54.5,53.3,46,0,0,0.0,8.21,0.00,0.00
15min,AgWx,bigpiney,439,29AUG2020:03:30:00,45.0,12.56,47.7,47.1,43.3,47.1,40.0,68,77,59,0.646,33.5,34.2,31.6,2.762,2.7,270,16,4.1,-0.00008,-0.00009,54.4,53.3,46,0,0,0.0,8.21,0.00,0.00
15min,AgWx,bigpiney,439,29AUG2020:03:45:00,44.7,12.54,47.5,47.5,48.0,48.8,47.1,56,59,55,0.633,33.3,33.6,32.9,2.17,1.8,257,13,2.8,-0.00012,-0.00015,54.4,53.3,46,0,0,0.0,8.21,0.00,0.00
15min,AgWx,bigpiney,439,29AUG2020:04:00:00,44.6,12.53,49.7,49.4,48.5,49.4,47.5,56,57,54,0.652,33.3,33.7,33.0,3.113,2.7,237,12,3.6,-0.00004,-0.00003,54.3,53.3,46,0,0,0.0,8.21,0.00,0.00
15min,AgWx,bigpiney,439,29AUG2020:04:15:00,44.5,12.52,40.3,42.3,43.4,49.3,40.4,68,78,54,0.650,33.4,34.7,31.8,3.617,4.9,215,45,10.8,0.00003,0.00006,54.2,53.3,46,0,0,0.0,8.21,0.00,0.00
15min,AgWx,bigpiney,439,29AUG2020:04:30:00,44.3,12.51,43.3,42.9,42.2,45.2,40.1,73,79,66,0.675,34.3,35.1,33.5,4.034,3.2,239,37,6.7,-0.00007,-0.00007,54.2,53.2,46,0,0,0.0,8.21,0.00,0.00
15min,AgWx,bigpiney,439,29AUG2020:04:45:00,44.4,12.5,41.9,42.1,42.0,42.9,41.4,76,78,72,0.705,35.1,35.7,34.5,2.938,3.0,203,38,5.3,-0.00009,-0.00010,54.1,53.2,46,0,0,0.0,8.21,0.00,0.00
15min,AgWx,bigpiney,439,29AUG2020:05:00:00,44.5,12.5,41.5,41.5,41.1,42.1,40.6,81,83,78,0.711,35.8,36.0,35.5,2.521,3.2,216,15,5.5,-0.00010,-0.00011,54.0,53.2,46,0,0,0.0,8.21,0.00,0.00
15min,AgWx,bigpiney,439,29AUG2020:05:15:00,44.7,12.47,43.0,43.4,42.2,43.6,41.3,79,83,74,0.706,36.2,36.8,35.6,3.003,3.2,214,18,5.1,-0.00009,-0.00011,54.0,53.2,46,0,0,0.0,8.21,0.00,0.00
15min,AgWx,bigpiney,439,29AUG2020:05:30:00,44.8,12.46,40.7,41.0,43.3,46.2,40.9,73,82,64,0.711,35.3,35.9,34.7,2.609,3.5,191,12,4.1,-0.00006,-0.00005,53.9,53.1,46,0,0,0.0,8.21,0.00,0.00
15min,AgWx,bigpiney,439,29AUG2020:05:45:00,44.7,12.46,41.4,41.3,41.2,42.4,40.7,82,83,79,0.713,36.1,36.6,35.8,2.959,2.7,224,8.2,3.8,-0.00012,-0.00014,53.8,53.2,46,1,0,0.0,8.21,0.00,0.00
15min,AgWx,bigpiney,439,29AUG2020:06:00:00,44.6,12.46,43.2,42.5,40.9,42.5,40.1,81,85,74,0.679,35.6,36.3,34.7,2.894,2.9,264,52,4.8,-0.00011,-0.00005,53.8,53.1,46,9,0,0.0,8.21,0.00,0.00
15min,AgWx,bigpiney,439,29AUG2020:06:15:00,44.5,12.47,43.5,43.6,43.2,43.9,42.3,70,74,68,0.664,34.3,34.6,34.0,1.732,2.2,346,44,4.1,0.00010,0.00020,53.7,53.1,46,13,0,0.0,8.21,0.00,0.00
15min,AgWx,bigpiney,439,29AUG2020:06:30:00,44.3,12.5,42.6,42.6,43.1,44.3,41.9,69,73,66,0.648,33.7,34.1,33.3,4.099,3.1,281,59,5.6,0.00025,0.00039,53.6,53.1,46,22,0,0.0,8.21,0.00,0.00
15min,AgWx,bigpiney,439,29AUG2020:06:45:00,44.2,12.6,44.4,44.2,42.4,44.4,40.9,70,75,66,0.656,33.5,33.8,33.0,1.973,1.8,220,51,4.5,0.00019,0.00028,53.6,53.1,46,84,0,0.0,8.21,0.00,0.00
15min,AgWx,bigpiney,439,29AUG2020:07:00:00,44.5,12.74,46.1,45.7,44.8,45.8,44.1,73,79,67,0.768,36.5,38.4,33.7,2.411,1.4,42,17,4.4,0.00040,0.00049,53.5,53.1,46,160,0,0.0,8.21,0.00,0.00
15min,AgWx,bigpiney,439,29AUG2020:07:15:00,45.8,13.23,48.1,47.7,46.6,47.7,45.5,69,74,64,0.724,36.8,38.0,36.1,2.959,3.4,21,18,5.2,0.00095,0.00116,53.4,53.1,46,243,0,0.0,8.21,0.00,0.00
15min,AgWx,bigpiney,439,29AUG2020:07:30:00,47.6,13.31,51.7,51.1,49.3,51.1,47.8,63,66,59,0.769,37.2,38.7,36.2,3.332,2.3,317,24,4.2,0.00093,0.00113,53.4,53.0,46,208,0,0.0,8.21,0.00,0.00
15min,AgWx,bigpiney,439,29AUG2020:07:45:00,49.6,13.22,55.9,55.6,53.9,55.6,51.2,55,60,49,0.775,38.0,39.9,36.8,0.899,2.4,295,21,4.9,0.00131,0.00159,53.3,53.0,46,258,0,0.0,8.21,0.00,0.00
15min,AgWx,bigpiney,439,29AUG2020:08:00:00,51.8,13.71,53.7,53.7,54.9,55.6,53.7,56,63,48,0.843,39.4,42.4,36.1,5.897,3.0,230,29,6.4,0.00144,0.00175,53.3,53.0,46,256,0,0.0,8.21,0.00,0.00
15min,AgWx,bigpiney,439,29AUG2020:08:15:00,54.2,14.47,57.7,57.9,55.9,57.9,53.7,55,63,44,0.725,40.0,42.8,35.6,3.705,8.7,195,16,18.4,0.00236,0.00307,53.2,53.0,46,407,0,0.0,8.21,0.00,0.00